Temp
17 18 19 19 19 20 20 21 21 22 22 23 24 24 25 25 26 26 23 23 24 26 26 27 28 28 29 27 26 28 25 24 26 24 22 21 21 21 19 17 19 18 16 17 14
18 18 18 19 20 20 20 21 21 22 23 24 24 25 25 26 27 26 24 25 25 26 27 28 29 30 27 27 25 24 24 24 23 24 21 21 21 19 19 18 18 16 16 13 12
18 18 19 20 20 20 21 21 22 23 23 24 25 25 26 26 28 27 25 26 26 27 26 28 29 29 26 25 24 23 23 22 22 22 23 21 21 20 19 18 19 16 14 13 13
19 19 19 20 20 20 21 21 22 22 23 24 25 25 26 26 26 25 25 26 27 27 27 29 29 28 25 24 25 21 22 23 21 22 22 20 21 20 19 18 18 18 16 14 13
19 19 20 20 20 21 21 21 22 23 23 24 24 26 26 28 25 24 25 26 27 27 27 27 28 28 25 25 24 21 21 21 20 20 21 21 20 19 19 18 19 17 15 13 13
19 20 20 20 20 21 21 22 22 23 24 24 25 25 26 27 25 25 24 25 26 26 27 27 26 25 24 23 22 22 21 20 20 20 20 19 20 18 19 18 17 16 14 14 14
20 20 20 20 21 21 22 22 23 24 24 25 25 26 27 24 24 24 25 24 24 26 25 25 26 26 24 21 22 21 20 20 20 20 20 19 18 18 19 17 17 15 14 14 15
20 20 21 21 21 22 22 23 23 24 25 25 26 26 25 24 24 25 25 26 25 24 24 24 25 24 24 22 23 22 23 21 20 20 18 18 20 20 18 16 16 15 14 14 15
20 20 21 21 22 22 23 24 24 25 25 26 26 27 25 25 25 24 25 25 25 25 24 24 26 23 23 23 22 24 24 25 21 20 18 18 20 19 17 16 16 15 14 14 14
20 21 21 22 22 23 24 24 24 25 26 26 26 27 26 26 25 25 25 24 26 26 26 25 25 24 24 24 23 23 24 25 25 20 20 19 17 19 17 17 16 16 15 15 14
20 21 21 22 23 24 25 25 25 25 25 24 25 26 26 26 25 26 25 25 26 26 25 27 24 23 23 23 24 24 24 24 22 21 20 19 20 22 19 16 16 16 16 15 15
21 21 22 22 23 24 24 25 21 21 24 25 25 25 24 24 25 26 25 25 27 25 27 25 24 23 24 23 23 24 23 24 22 21 19 20 20 20 20 17 17 16 16 16 16
21 21 22 23 23 24 23 21 21 21 23 24 25 26 25 24 25 25 24 25 25 25 26 24 23 23 23 24 24 24 24 22 22 21 22 20 20 20 20 19 18 17 17 17 16
21 21 22 23 23 24 23 21 21 21 23 24 24 25 25 25 24 24 23 23 25 25 25 24 23 23 23 23 23 22 21 22 21 20 21 22 19 22 19 18 19 17 15 16 16
21 22 22 22 23 24 21 21 21 22 24 24 25 24 25 24 24 23 22 23 24 25 24 23 22 22 22 22 22 21 20 20 20 20 21 21 19 22 21 20 18 16 16 15 15
21 22 22 22 23 22 22 22 22 23 24 24 25 25 24 24 24 25 24 24 23 24 24 22 22 22 21 22 21 21 20 20 20 19 20 22 21 21 20 24 22 20 19 17 15
20 21 22 22 22 22 21 22 23 23 24 24 24 25 25 25 25 24 25 23 23 23 22 22 22 20 20 21 20 20 20 20 20 19 21 21 20 20 23 23 23 19 17 16 15
20 21 21 22 21 22 22 23 23 26 26 24 24 24 24 25 24 24 23 23 22 23 22 23 22 20 21 21 20 21 21 20 22 21 21 20 19 22 22 21 21 20 19 17 15
20 21 21 21 22 21 22 23 25 25 24 24 24 23 24 24 23 24 23 23 23 22 22 23 22 19 20 20 19 21 20 20 20 22 19 21 22 21 20 19 18 17 16 14 13
20 22 22 22 22 21 22 23 25 23 23 23 24 25 24 24 22 23 25 23 21 20 20 22 21 21 17 19 19 18 19 20 18 20 20 21 23 21 20 20 19 17 15 14 13
19 20 19 20 21 21 21 23 24 22 22 22 23 24 24 24 24 24 24 20 22 19 20 20 21 19 19 17 20 17 18 18 18 19 18 19 19 25 24 23 21 19 18 15 12
19 19 19 20 20 21 21 24 18 22 21 21 21 22 22 24 23 23 24 21 20 19 20 18 19 20 21 18 18 19 20 19 18 19 17 16 17 22 24 22 21 19 19 18 14
18 20 19 20 20 20 23 23 22 22 21 21 21 21 22 22 21 22 22 17 18 19 19 19 18 19 20 18 18 18 19 20 19 18 17 17 18 22 22 21 19 17 16 15 13
18 19 19 18 19 20 21 22 22 20 21 22 22 21 21 20 21 21 21 16 16 17 14 16 18 19 20 21 20 18 19 18 18 17 17 18 20 22 20 21 21 19 16 14 11
18 19 17 19 19 19 20 21 21 21 19 20 20 20 20 21 21 20 20 15 15 14 15 16 16 19 19 19 20 19 19 17 17 19 19 22 20 21 21 20 19 20 18 16 12
16 17 18 18 20 19 19 20 20 21 20 19 18 21 19 20 21 21 22 18 18 13 15 15 16 18 17 19 19 17 18 18 18 18 18 19 19 21 21 19 20 18 16 13 12
16 16 16 18 19 19 19 20 21 21 21 21 19 19 19 19 19 18 17 18 17 15 15 14 14 17 16 20 19 17 19 18 18 18 18 16 19 19 19 19 18 18 17 15 11
Height
825 824 824 826 824 827 827 826 826 825 823 822 821 820 818 816 817 818 820 822 819 816 814 813 813 811 811 813 812 810 829 842 838 842 850 851 857 856 861 867 867 871 873 874 884
825 825 827 826 825 827 827 827 827 825 823 822 822 821 818 816 817 819 824 820 819 816 815 814 811 809 814 816 817 824 831 839 838 837 849 852 854 861 864 866 871 874 878 880 885
825 827 829 825 827 829 829 829 828 826 824 822 821 821 819 817 817 823 822 819 818 817 816 816 813 810 819 822 826 828 841 840 844 841 840 851 852 855 862 867 862 869 877 881 885
825 830 828 828 829 830 830 830 829 827 824 822 822 821 819 819 836 825 822 819 817 816 816 814 810 814 827 831 826 843 841 839 847 843 845 853 851 858 859 860 857 857 867 877 882
828 830 829 828 831 832 831 831 830 826 825 823 822 820 819 821 828 826 823 820 818 817 815 814 812 816 829 829 830 842 845 847 849 849 848 850 854 858 855 856 857 861 868 874 879
832 829 828 830 833 832 832 832 830 827 825 824 822 820 820 827 827 826 824 822 819 819 817 814 816 816 828 835 837 840 844 851 851 852 853 856 853 858 848 851 858 863 868 872 875
832 828 831 832 833 833 833 833 830 827 826 824 822 820 821 830 826 826 825 824 822 821 822 821 819 820 826 840 836 842 853 850 851 852 852 855 858 852 847 852 858 863 867 870 872
832 829 832 832 832 833 834 832 829 827 826 824 822 821 828 827 826 827 825 825 824 825 824 824 822 824 827 833 838 842 841 853 849 850 856 857 854 841 844 853 858 861 864 866 867
834 832 834 832 831 835 834 830 828 827 826 824 823 820 830 827 826 827 826 825 825 825 824 824 822 829 833 838 844 838 846 836 853 846 855 858 850 846 846 850 853 855 858 860 863
837 835 834 832 834 833 833 830 828 827 825 824 823 826 828 828 827 826 826 825 825 823 823 824 823 831 829 836 857 849 844 836 835 848 847 854 855 841 841 845 847 849 851 853 856
838 835 834 835 834 833 832 829 831 830 827 832 830 828 826 828 826 825 825 824 822 822 831 820 837 845 839 837 837 839 841 841 840 842 848 848 842 830 831 840 845 844 845 846 847
837 836 837 836 834 833 831 830 834 836 835 829 828 828 828 827 828 823 825 826 822 831 821 830 839 835 833 834 838 838 841 837 839 841 848 843 839 829 826 832 833 836 837 838 840
837 838 837 835 833 834 832 834 833 834 835 830 827 826 827 828 827 825 826 824 827 831 828 839 839 834 836 835 838 834 837 844 848 840 831 839 838 830 826 824 827 828 829 830 832
838 838 836 834 836 833 834 834 834 835 843 839 832 828 827 827 831 827 828 830 827 834 829 834 835 836 838 839 841 847 841 842 845 850 852 832 863 827 827 829 825 826 828 827 827
839 838 837 836 834 833 836 834 834 836 858 835 830 827 826 831 829 830 828 827 833 831 834 840 840 841 840 839 839 846 844 846 846 851 843 840 856 827 819 825 823 823 822 822 822
840 839 838 836 835 836 835 834 835 851 854 837 826 829 831 827 826 825 827 827 827 832 830 837 833 834 837 836 839 840 845 846 844 850 860 837 841 829 824 805 809 809 811 814 816
841 839 838 837 837 836 835 835 851 855 831 838 833 829 829 828 827 828 829 833 839 846 845 838 838 837 838 842 840 844 850 861 861 867 853 834 845 828 801 796 797 805 809 810 812
841 840 838 838 837 836 837 840 858 830 828 830 830 830 836 826 830 829 833 838 831 836 842 839 848 840 836 839 847 839 843 855 859 856 846 837 849 814 791 793 795 797 800 806 811
841 840 839 837 837 837 839 852 839 832 830 832 830 838 831 830 837 832 831 832 829 832 844 837 841 840 839 839 844 840 851 839 848 836 858 832 811 802 796 799 800 803 805 808 810
841 839 837 836 837 837 843 845 832 830 831 832 839 830 837 832 840 833 825 825 834 835 835 835 846 837 847 843 843 848 843 852 855 861 857 831 812 815 803 798 795 799 801 801 803
843 840 836 835 837 839 851 838 829 831 832 838 835 835 833 835 832 834 829 835 829 839 838 838 839 848 844 848 840 853 850 847 847 848 862 857 836 775 780 782 785 788 788 791 796
843 847 836 836 845 838 840 831 837 831 834 836 837 836 835 829 834 833 828 829 831 837 840 842 845 845 833 835 833 834 832 836 852 850 854 858 836 776 771 776 778 783 781 782 786
843 838 836 836 848 842 831 832 832 832 833 835 835 832 830 835 843 830 827 839 837 838 840 840 846 851 841 841 837 841 831 828 832 838 846 853 826 773 772 775 777 781 780 780 784
846 844 837 837 834 839 837 829 833 831 832 829 830 831 835 838 831 834 833 842 842 841 845 844 843 842 844 831 828 839 832 831 836 847 837 821 801 781 780 775 772 772 773 776 781
844 841 841 839 838 836 835 832 832 832 835 832 832 833 833 836 831 834 830 844 845 845 846 846 848 832 828 825 823 823 824 828 831 815 821 788 796 774 770 772 768 764 767 772 777
846 843 838 837 832 836 833 832 832 827 830 834 837 824 831 833 824 826 821 831 834 848 847 844 845 832 833 820 819 826 816 815 813 808 807 796 793 761 762 762 761 763 765 769 769
845 844 844 837 832 834 832 828 825 822 819 818 826 828 828 825 822 821 823 823 825 835 842 847 846 838 839 815 818 827 797 799 794 790 792 809 772 764 765 762 761 758 757 759 761
Wind_Speed
5 6 7 7 7 7 7 5 4 3 7 8 7 8 10 10 6 8 10 12 8 6 6 9 11 6 4 2 4 3 2 4 2 7 7 8 5 2 3 6 1 4 6 9 30
7 6 7 8 9 7 6 4 3 5 7 6 7 9 11 10 7 17 17 11 7 8 10 12 9 8 4 2 3 4 2 5 8 6 8 10 9 7 5 7 5 5 8 28 26
6 6 8 9 8 6 4 2 4 5 6 5 5 7 10 8 3 9 18 11 9 8 8 11 10 5 5 5 6 6 4 6 6 5 9 9 4 7 4 6 7 11 11 20 21
8 7 8 8 6 5 2 3 4 5 5 5 4 5 7 5 2 13 15 13 11 10 10 11 7 1 4 4 2 6 5 5 5 3 6 8 5 4 7 2 5 8 23 21 18
8 8 8 7 5 1 2 4 4 5 6 4 4 4 3 4 4 12 15 14 9 8 7 8 6 4 4 4 7 7 5 7 7 3 4 5 4 6 7 7 4 19 18 16 18
9 8 7 6 1 2 3 4 5 6 5 4 3 3 3 2 2 8 13 14 11 9 16 10 7 9 7 4 5 6 7 8 6 5 3 4 5 3 8 8 8 11 11 14 18
7 9 7 3 1 2 4 6 6 4 4 5 5 4 9 4 3 5 8 11 16 9 4 6 4 3 6 5 6 10 6 5 5 6 3 1 6 10 3 9 9 10 9 10 16
7 8 3 2 2 4 6 6 5 3 4 4 2 4 4 1 2 4 6 2 9 6 6 6 9 5 3 7 4 5 5 4 6 8 4 3 6 9 10 9 9 10 9 9 14
6 4 2 3 3 6 8 3 4 3 3 3 4 6 5 2 0 4 4 5 6 1 1 2 2 4 4 5 5 5 3 3 5 9 5 6 2 6 8 10 10 10 10 10 9
4 3 2 3 5 6 7 7 7 3 5 5 4 2 2 2 1 4 2 4 4 6 6 5 4 5 3 4 2 5 5 6 1 8 6 7 10 10 13 10 10 10 10 10 11
2 2 2 5 5 7 7 12 3 3 9 4 4 1 3 3 3 3 4 6 8 7 6 4 2 4 7 4 3 4 6 7 7 4 3 9 10 9 13 10 10 10 10 10 11
1 1 3 6 6 7 7 4 3 2 1 2 3 4 1 2 3 6 9 4 3 7 1 3 1 5 3 2 4 5 7 3 5 6 3 8 11 10 8 10 15 11 10 10 10
0 2 4 7 4 4 7 3 2 3 4 4 1 0 2 2 3 4 9 6 5 7 5 4 3 2 2 4 5 6 1 4 4 6 6 5 5 4 2 3 12 9 7 9 11
2 4 5 7 1 1 3 5 4 1 3 5 4 2 3 1 2 2 3 1 3 5 3 3 3 2 3 5 1 5 5 2 5 4 1 3 4 6 5 6 6 8 9 9 9
4 5 4 7 5 2 1 6 3 1 3 2 4 1 2 4 2 4 1 3 5 4 2 0 5 4 5 2 1 2 3 4 4 5 4 5 1 3 6 8 9 10 10 10 9
5 6 5 4 1 2 5 6 3 3 2 3 2 2 4 6 5 2 3 4 2 4 5 3 2 2 3 1 2 4 4 6 4 3 2 6 2 4 5 6 6 6 7 9 10
5 5 3 3 1 5 5 3 3 4 2 4 2 3 3 3 3 3 3 5 3 3 6 5 5 3 1 3 4 4 3 2 1 0 4 6 2 9 6 6 7 10 10 9 8
6 5 4 1 3 5 3 3 4 1 4 1 1 2 4 2 4 3 4 4 4 3 4 4 4 6 6 1 3 3 1 1 3 3 2 4 5 5 7 7 5 4 3 6 8
6 4 4 6 3 3 3 4 4 5 2 2 3 3 5 4 1 3 8 6 4 4 4 4 3 3 3 3 1 1 3 0 2 3 2 4 7 5 4 6 7 7 7 8 8
6 6 6 7 3 2 2 5 2 3 1 1 2 1 4 4 2 5 4 3 4 3 3 2 3 2 3 2 3 3 4 0 2 2 4 5 5 6 7 9 9 9 11 10 9
4 3 2 3 1 2 4 5 2 3 1 2 3 3 5 4 4 4 5 1 3 4 3 4 3 2 3 7 5 2 3 3 1 2 4 3 6 3 6 8 8 9 9 10 11
3 3 2 3 1 3 5 6 2 4 2 2 1 3 4 2 4 4 4 4 4 5 2 1 3 4 4 3 3 2 3 6 3 4 4 3 8 6 3 6 6 7 7 6 8
2 3 1 3 3 6 5 2 2 4 4 5 4 6 4 2 3 7 3 2 3 2 1 2 3 4 1 0 2 4 5 4 2 0 6 4 6 2 4 5 8 9 9 8 8
3 3 1 1 2 3 5 7 7 0 4 3 2 3 3 5 6 4 2 1 2 1 1 2 3 6 3 1 3 5 6 8 7 4 4 12 13 13 9 8 4 6 10 9 9
3 2 2 2 3 7 6 8 7 3 3 2 4 8 6 4 5 6 6 3 3 5 2 2 5 5 9 8 6 8 9 10 14 19 8 17 11 17 9 9 8 3 4 6 8
2 3 3 3 2 5 5 4 8 10 6 5 7 4 9 7 7 3 3 5 6 4 5 4 4 2 5 11 6 7 10 13 19 21 18 21 23 23 20 12 6 8 8 9 10
1 2 2 4 3 4 5 5 5 3 5 4 1 5 8 6 6 2 2 2 5 9 8 6 3 3 5 1 5 8 12 17 8 8 16 13 22 11 10 7 8 8 7 9 10
Wind_Direction
156 147 142 154 132 130 123 106 92 39 19 17 15 359 357 354 17 52 36 322 327 353 317 298 262 204 116 74 2 311 219 121 107 184 123 141 143 214 354 121 140 115 39 122 149
142 141 153 141 131 133 120 101 56 11 11 12 359 343 350 348 1 60 360 353 342 354 350 332 350 318 73 63 10 25 54 52 9 36 138 164 160 148 171 152 168 125 80 120 139
137 150 151 132 136 135 112 67 8 3 8 7 351 332 347 342 287 33 351 355 351 339 320 305 293 307 95 51 359 2 54 107 40 8 118 162 157 146 218 184 196 179 152 144 159
135 150 136 133 131 122 70 7 354 4 11 355 325 315 329 2 35 353 349 356 355 336 320 288 264 209 71 55 114 105 30 66 114 34 117 146 142 190 220 98 2 139 153 158 176
144 147 135 126 124 93 7 353 347 10 10 358 320 315 307 115 58 356 12 0 13 356 311 313 302 110 111 100 83 85 104 85 92 90 110 85 203 222 212 156 119 119 146 166 185
153 136 123 120 125 16 350 336 343 353 11 23 12 324 286 298 23 352 17 28 26 24 24 20 58 77 76 54 19 109 116 123 158 127 104 206 217 84 226 135 146 141 164 178 191
143 124 123 119 36 348 332 326 332 344 349 -0 360 355 64 71 27 14 22 30 36 28 63 8 330 303 127 109 112 136 118 153 172 175 166 235 256 224 220 124 165 165 178 188 196
131 121 119 87 21 337 316 320 325 332 347 337 341 311 75 174 94 21 358 342 32 33 71 65 80 64 52 114 140 219 176 198 152 159 124 202 282 161 151 150 189 181 188 193 200
131 114 103 35 15 320 310 311 1 296 339 359 293 265 118 155 320 340 339 338 320 276 314 268 265 116 164 217 176 207 253 136 170 188 130 198 318 125 153 178 196 190 201 194 201
143 108 44 20 338 325 300 266 304 291 309 281 285 218 168 58 334 306 288 314 300 309 244 220 208 203 233 357 32 341 348 342 151 188 212 218 251 231 189 185 206 198 199 203 196
134 77 18 340 341 342 316 280 220 221 42 13 18 210 75 22 306 186 343 305 249 244 275 180 281 58 67 32 345 312 305 290 90 115 237 236 261 271 173 187 205 217 206 205 204
128 13 335 338 338 351 313 360 61 5 238 165 141 138 110 347 273 110 358 254 302 286 234 243 148 72 76 320 290 282 272 308 105 154 193 266 286 273 145 200 200 206 220 209 200
124 309 331 341 349 37 70 64 7 351 254 150 93 326 80 318 341 18 358 356 289 292 329 64 62 101 283 238 302 289 60 16 328 317 238 320 271 181 219 295 196 212 212 224 202
346 325 334 334 320 237 61 345 322 323 269 144 196 130 180 275 219 38 15 333 250 312 357 44 132 248 252 271 28 295 35 353 299 318 293 141 288 211 175 211 214 212 221 229 233
343 327 327 5 332 12 314 336 330 282 272 254 123 69 129 258 18 148 225 223 289 340 270 100 181 206 250 43 37 8 17 304 297 267 296 188 192 205 167 213 207 214 213 216 220
343 339 322 337 333 333 311 324 348 234 228 136 108 172 220 182 175 162 223 206 359 283 225 84 -0 314 13 19 235 351 258 207 234 242 265 148 179 253 196 179 163 171 189 197 194
330 339 347 325 341 309 320 283 270 245 243 144 148 199 260 218 191 213 219 206 231 264 198 157 195 107 292 261 168 230 247 247 278 286 238 124 269 244 176 170 182 185 198 191 182
310 323 322 329 326 333 297 264 263 109 57 8 299 232 246 95 199 188 266 246 199 209 285 242 262 176 156 314 352 294 320 266 265 302 336 133 236 250 140 112 117 134 146 164 184
307 301 269 280 332 357 274 258 334 32 9 340 188 263 196 155 240 214 213 263 67 180 245 339 147 90 12 17 79 110 250 55 294 32 21 230 255 20 131 200 209 208 194 211 207
317 281 227 258 297 324 264 273 305 64 65 267 279 104 324 145 179 194 257 37 124 6 6 1 279 188 113 265 215 233 320 195 273 263 272 288 279 235 213 228 217 211 214 209 197
320 276 329 242 208 248 234 239 41 86 39 266 309 303 237 305 240 290 278 125 82 139 304 335 229 141 125 200 183 171 238 238 24 174 214 295 265 195 204 183 181 202 203 202 189
319 258 320 130 224 226 229 272 26 164 138 255 272 292 282 300 265 256 286 80 60 150 205 74 318 272 197 71 48 309 272 174 160 227 238 168 269 235 198 147 179 233 220 192 175
276 275 62 134 247 244 221 252 302 189 197 190 236 224 43 293 252 240 102 95 66 210 285 138 240 300 294 31 43 255 206 254 62 145 220 179 261 28 157 201 223 227 231 211 178
291 284 149 178 279 289 311 255 212 43 294 248 289 13 191 234 232 280 218 129 118 322 68 48 265 232 249 108 177 230 232 206 185 196 216 229 267 261 243 276 262 248 227 198 181
216 263 115 242 241 238 259 295 312 204 208 247 249 219 196 256 221 218 219 141 186 153 213 227 248 241 262 283 269 235 236 202 212 226 209 261 233 263 279 299 291 213 157 184 185
303 338 354 274 293 290 215 238 257 263 163 214 232 267 224 244 224 334 190 157 197 143 193 187 256 298 277 248 231 258 248 233 229 239 244 260 278 276 277 278 249 253 227 213 209
12 250 265 281 292 245 241 234 268 19 257 235 63 274 263 260 310 142 70 20 157 156 191 165 228 208 259 196 285 277 241 222 222 222 218 233 243 278 278 252 254 257 246 233 213